Flag for Germany Weather past 2 weeks in Cologne, North Rhine-Westphalia, Germany

Now
50 °F

Light rain. Partly sunny.


Feels Like: 47 °F
Forecast: 42 / 48 °F
Wind: 8 mph from Southwest

Location: Koeln / Bonn

Current Time: Mar 29, 2015 at 12:41:50 PM

Latest Report: Mar 29, 2015 at 12:20 PM


Visibility: N/A

Pressure: 29.62 "Hg

Humidity: 88%

Dew point: 46 °F

Location of CologneLocation

Historic Weather in Cologne — Graph

°F

Cologne temperature yesterday

Maximum temperature yesterday: 54 °F (at 10:50 AM)
Minimum temperature yesterday: 36 °F (at 5:50 AM)
Average temperature yesterday: 46 °F

Past Weeks' High & Low Weather Summary

 TemperatureHumidityPressure
High66 °F (Mar 17, 3:50 PM)100% (Mar 16, 4:50 AM)30.36 "Hg (Mar 16, 4:50 AM)
Low28 °F (Mar 16, 7:20 AM)28% (Mar 17, 3:50 PM)29.65 "Hg (Mar 25, 12:50 AM)
Average44 °F76%30.08 "Hg
* Reported Mar 14 10:20 AM — Mar 29 11:20 AM, Cologne, Weather by CustomWeather, © 2015

Note: Actual official high and low records may vary slightly from our data, if they occured in-between our weather recording intervals... More about our weather records

Advertising

Cologne weather history for previous 24 hours

 ConditionsComfort  
Time TempWeatherWind HumidityBarometerVisibility
11:20 AM
Sun, Mar 29
48 °FLight rain. Partly sunny.12 mph87%29.65 "HgN/A
10:50 AM48 °FLight rain. Partly sunny.10 mph87%29.65 "HgN/A
10:20 AM48 °FLight rain. Partly sunny.12 mph82%29.68 "HgN/A
9:50 AM50 °FLight rain. Partly sunny.14 mph76%29.68 "HgN/A
9:20 AM50 °FLight rain. Partly sunny.16 mph76%29.71 "HgN/A
8:50 AM52 °FLight rain. Broken clouds.16 mph67%29.71 "HgN/A
8:20 AM52 °FBroken clouds.17 mph67%29.71 "HgN/A
7:50 AM52 °FPartly cloudy.10 mph67%29.71 "HgN/A
7:20 AM52 °FPartly cloudy.20 mph72%29.71 "HgN/A
6:50 AM52 °FPartly cloudy.17 mph72%29.74 "HgN/A
6:20 AM52 °FPartly cloudy.14 mph72%29.74 "HgN/A
5:50 AM52 °FPartly cloudy.16 mph72%29.74 "HgN/A
5:20 AM52 °FPartly cloudy.17 mph72%29.74 "HgN/A
4:50 AM52 °FPartly cloudy.14 mph77%29.74 "HgN/A
4:20 AM52 °FPartly cloudy.15 mph82%29.77 "HgN/A
3:50 AM52 °FPartly cloudy.6 mph82%29.77 "HgN/A
3:20 AM54 °FPassing clouds.14 mph77%29.77 "HgN/A
1:50 AM54 °FLight rain. Passing clouds.10 mph82%29.77 "HgN/A
1:20 AM52 °FLight rain. Passing clouds.9 mph88%29.77 "HgN/A
12:50 AM52 °FPassing clouds.9 mph88%29.80 "HgN/A
12:20 AM52 °FPassing clouds.10 mph88%29.80 "HgN/A
11:50 PM
Sat, Mar 28
50 °FPassing clouds.7 mph88%29.83 "HgN/A
11:20 PM50 °FDrizzle. Overcast.8 mph88%29.83 "HgN/A
10:50 PM50 °FLight rain. Passing clouds.9 mph88%29.83 "HgN/A
10:20 PM50 °FPartly cloudy.12 mph88%29.83 "HgN/A
9:50 PM48 °FPartly cloudy.12 mph94%29.86 "HgN/A
9:20 PM48 °FPassing clouds.12 mph94%29.86 "HgN/A
8:50 PM48 °FPassing clouds.12 mph87%29.89 "HgN/A
8:20 PM50 °FPassing clouds.12 mph82%29.92 "HgN/A
7:50 PM48 °FPartly cloudy.10 mph87%29.92 "HgN/A
7:20 PM48 °FPassing clouds.8 mph87%29.92 "HgN/A
6:50 PM48 °FPartly sunny.10 mph87%29.92 "HgN/A
6:20 PM48 °FPartly sunny.9 mph87%29.92 "HgN/A
5:50 PM46 °FPartly sunny.9 mph93%29.92 "HgN/A
5:20 PM46 °FPartly sunny.10 mph93%29.95 "Hg4 mi
4:50 PM46 °FDrizzle. Fog.8 mph93%29.95 "Hg1 mi
4:20 PM46 °FDrizzle. Fog.8 mph93%29.98 "Hg2 mi
3:50 PM48 °FDrizzle. Broken clouds.12 mph87%29.98 "Hg5 mi
3:20 PM48 °FLight rain. Partly sunny.12 mph82%29.98 "HgN/A
2:50 PM50 °FLight rain. Mostly cloudy.9 mph82%30.01 "HgN/A
2:20 PM50 °FRain. Mostly cloudy.12 mph71%30.01 "HgN/A
1:50 PM52 °FLight rain. Mostly cloudy.14 mph62%30.04 "HgN/A
1:20 PM52 °FLight rain. Partly sunny.15 mph58%30.04 "HgN/A
12:50 PM54 °FPartly sunny.16 mph51%30.04 "HgN/A
12:20 PM54 °FPartly sunny.15 mph51%30.04 "HgN/A
Weather by CustomWeather, © 2015

See weather overviewHow to use our weather pages